Regional Weather Roundup
Issued by NWS

Home | Current Version | Previous Version | Graphics & Text | Print | Product List | Glossary On
Versions: 1 2 3 4 5 6 7 8 9 10 11 12 13 14 15 16 17 18 19 20 21 22 23 24 25 26 27 28 29 30 31 32 33 34 35 36 37 38 39 40 41 42 43 44 45 46 47 48 49 50
000
ASUS43 KIND 160709
RWRIN

WEATHER ROUNDUP FOR INDIANA
NATIONAL WEATHER SERVICE INDIANAPOLIS IN
200 AM EST SAT DEC 16 2017

NOTE: "FAIR" INDICATES FEW OR NO CLOUDS BELOW 12,000 FEET WITH NO
SIGNIFICANT WEATHER AND/OR OBSTRUCTIONS TO VISIBILITY.

* - STATION DOES NOT REPORT WEATHER SUCH AS PRECIPITATION OR FOG.

+ - STATION NOT QUALITY CONTROLLED BY THE NATIONAL WEATHER SERVICE.
    USE DATA WITH CAUTION...ESPECIALLY DEWPOINT AND RELATIVE
    HUMIDITY OBSERVATIONS.

INZ001>003-010>013-019-020-160800-
NORTHWEST INDIANA

CITY           SKY/WX    TMP DP  RH WIND       PRES   REMARKS
GARY /AIRPORT/ CLOUDY    38  19  46 SW9G18    29.91S WCI  31
KNOX *+        CLOUDY    34  23  64 SW18      29.93R WCI  23
LA PORTE +     PTCLDY    35  23  62 SW18G24   29.91S WCI  24
MICHIGAN CITY+ CLOUDY    36  23  60 SW13      29.91S WCI  27
MONTICELLO +   CLOUDY    34  20  57 SW12G17   29.97S WCI  25
RENSSELAER +   CLOUDY    34  16  47 SW16      29.96S WCI  23
VALPARAISO     CLOUDY    37  23  56 SW13G22   29.92S WCI  29

$$

LMZ046-743>745-160800-
SOUTHERN LAKE MICHIGAN

STATION/POSITION TIME  TEMP    WIND        PRES    WAVE
                       AIR SEA DIR/SP/G            HT
                 (UTC) (F)     (DEG/KT/KT) (MB)    (FT)
BURNS HARBOR     0630   38     210/ 18/ 21 1012.9S
MICHIGAN CITY    0640   37     210/ 24/ 28   N/A

$$

INZ004-005-014>016-021>024-160800-
NORTH CENTRAL INDIANA

CITY           SKY/WX    TMP DP  RH WIND       PRES   REMARKS
GOSHEN         CLOUDY    32  23  69 SW15      29.91R WCI  22
LOGANSPORT +   CLOUDY    34  23  64 SW14      29.98R WCI  24
PERU/GRISSOM   CLOUDY    35  22  59 SW17      29.96R WCI  25
ROCHESTER +    MOCLDY    36  27  69 SW13      29.95S WCI  27
SOUTH BEND     CLOUDY    33  24  69 SW15      29.90S WCI  23
WARSAW +       CLOUDY    32  23  69 SW14G24   29.92S WCI  22

$$

INZ006>009-017-018-025>027-160800-
NORTHEAST INDIANA

CITY           SKY/WX    TMP DP  RH WIND       PRES   REMARKS
AUBURN +       CLOUDY    32  23  69 SW9G17    29.92S WCI  24
FORT WAYNE     CLOUDY    33  24  69 SW20      29.94F WCI  21
HUNTINGTON +   CLOUDY    33  22  65 SW9       29.95S WCI  25
KENDALLVILLE + CLOUDY    32  23  69 SW12      29.91R WCI  23

$$

INZ028-029-035-036-043>045-051>053-160800-
WEST CENTRAL INDIANA

CITY           SKY/WX    TMP DP  RH WIND       PRES   REMARKS
CRAWFORDSVL +  CLOUDY    31  23  72 SW12      30.01R WCI  22
GREENCASTLE +  CLOUDY    32  23  69 SW3       30.04R
LAFAYETTE      CLOUDY    34  22  61 SW7       29.99S WCI  28
TERRE HAUTE    CLOUDY    34  24  67 SW9       30.05F WCI  27

$$

INZ030>032-037>040-046>048-054>057-064-065-160800-
CENTRAL INDIANA

CITY           SKY/WX    TMP DP  RH WIND       PRES   REMARKS
FRANKFORT +    CLOUDY    36  24  61 SW15      30.01R WCI  27
GREENWOOD *+   CLOUDY    33  27  76 SW8       30.03F WCI  27
INDIANAPOLIS   CLOUDY    32  23  69 S8        30.02F WCI  25
-EAGLE CREEK   CLOUDY    33  22  63 SW6       30.02S WCI  28
KOKOMO +       CLOUDY    35  22  58 SW16      29.98S WCI  25
MARION +       CLOUDY    34  23  64 W14       29.99S WCI  24
MT COMFORT *+  CLOUDY    32  27  80 SW10G16   30.02F WCI  24
SHELBYVILLE    CLOUDY    29  23  78 S8        30.03F WCI  21
ZIONSVILLE +   CLOUDY    32  23  68 SW13G20   30.01S WCI  22

$$

INZ033-034-041-042-049-050-058-059-160800-
EAST CENTRAL INDIANA

CITY           SKY/WX    TMP DP  RH WIND       PRES   REMARKS
MUNCIE         CLOUDY    34  23  64 SW13      29.98F WCI  25
RICHMOND +     CLOUDY    30  25  80 SW15      30.03S WCI  19

$$

INZ060-061-067>069-081>083-085>088-160800-
SOUTHWEST INDIANA

CITY           SKY/WX    TMP DP  RH WIND       PRES   REMARKS
EVANSVILLE     CLEAR     31  26  82 SW6       30.12S WCI  25
HUNTINGBURG +  CLEAR     34  26  72 S9        30.11  WCI  27
WASHINGTON +   CLEAR     32  23  71 S10       30.08F WCI  23

$$

INZ062-063-066-070>080-084-089>092-160800-
SOUTH CENTRAL AND SOUTHEAST INDIANA

CITY           SKY/WX    TMP DP  RH WIND       PRES   REMARKS
BEDFORD +      CLOUDY    32  25  74 S7        30.08S WCI  26
BLOOMINGTON    CLOUDY    31  23  72 S8        30.05F WCI  23
MADISON *+     CLOUDY    32  27  80 S8        30.11S WCI  25
NORTH VERNON + MOCLDY    28  23  80 S7        30.08F WCI  21
SEYMOUR +      CLOUDY    32  25  74 SW8       30.09F WCI  25

$$





USA.gov is the U.S. government's official web portal to all federal, state and local government web resources and services.